Total_Precipitation_Accumulation
0.01 0.01 0.01 0.03 0.07 0.18 0.28 0.27 0.32 0.36 0.51 0.55 0.60 0.70 0.73 0.76 1.16 1.87 1.22 0.77 0.50 0.32 0.26 0.31 0.25 0.23 0.23 0.23 0.27 0.32 0.32 0.31 0.28 0.28 0.25 0.23 0.23 0.23 0.25 0.25 0.30 0.39 0.42 0.40 0.40 0.42 0.38 0.36 0.31
0.01 0.01 0.02 0.05 0.13 0.24 0.33 0.38 0.47 0.42 0.49 0.56 0.61 0.68 0.66 0.63 0.60 0.68 0.74 0.70 0.48 0.33 0.38 0.37 0.27 0.27 0.27 0.26 0.29 0.31 0.33 0.35 0.35 0.35 0.29 0.25 0.25 0.27 0.27 0.27 0.32 0.40 0.50 0.46 0.38 0.35 0.32 0.30 0.28
0.01 0.02 0.04 0.07 0.15 0.23 0.38 0.44 0.52 0.50 0.57 0.60 0.71 0.77 0.84 0.79 0.66 0.65 0.68 0.62 0.50 0.43 0.54 0.47 0.34 0.30 0.30 0.35 0.33 0.33 0.35 0.37 0.41 0.40 0.35 0.30 0.26 0.26 0.30 0.35 0.41 0.46 0.54 0.70 0.57 0.44 0.36 0.31 0.31
0.01 0.03 0.06 0.11 0.14 0.19 0.29 0.40 0.49 0.61 0.76 0.68 0.71 0.79 0.80 0.76 0.70 0.69 0.70 0.61 0.47 0.47 0.50 0.45 0.39 0.34 0.34 0.39 0.38 0.41 0.44 0.44 0.41 0.42 0.42 0.40 0.33 0.33 0.38 0.46 0.51 0.52 0.52 0.66 0.78 0.61 0.51 0.42 0.36
0.02 0.04 0.08 0.13 0.18 0.22 0.30 0.38 0.50 0.74 0.80 0.71 0.72 0.94 1.09 1.10 0.91 0.80 0.71 0.64 0.56 0.53 0.50 0.53 0.54 0.51 0.51 0.48 0.46 0.50 0.51 0.51 0.50 0.47 0.48 0.50 0.42 0.40 0.48 0.57 0.60 0.61 0.63 0.67 0.65 0.56 0.51 0.47 0.42
0.02 0.05 0.11 0.18 0.24 0.25 0.32 0.45 0.56 0.73 0.89 0.79 0.80 1.11 1.57 1.60 1.36 1.11 0.83 0.83 0.75 0.62 0.59 0.65 0.71 0.70 0.67 0.60 0.59 0.59 0.53 0.52 0.53 0.53 0.54 0.54 0.49 0.49 0.55 0.63 0.71 0.80 0.78 0.73 0.67 0.60 0.53 0.51 0.50
0.03 0.05 0.12 0.18 0.26 0.33 0.31 0.39 0.62 0.82 1.03 1.08 0.94 1.17 1.58 1.73 1.48 1.19 1.10 1.08 0.98 0.94 0.93 0.82 0.76 0.73 0.74 0.70 0.67 0.69 0.66 0.63 0.60 0.58 0.57 0.58 0.58 0.57 0.66 0.78 0.85 0.85 0.77 0.74 0.71 0.68 0.64 0.58 0.52
0.03 0.05 0.11 0.17 0.28 0.35 0.37 0.46 0.65 0.85 1.08 1.10 0.92 1.20 1.67 1.71 1.42 1.34 1.39 1.36 1.40 1.60 1.86 1.37 1.00 0.87 0.80 0.78 0.78 0.81 0.85 0.84 0.77 0.71 0.66 0.66 0.70 0.74 0.83 0.85 0.88 0.88 0.81 0.77 0.80 0.79 0.72 0.66 0.59
0.04 0.06 0.10 0.19 0.29 0.38 0.41 0.53 0.58 0.59 0.88 0.87 0.80 0.98 1.47 1.50 1.36 1.49 1.67 1.81 1.77 1.94 2.22 1.67 1.32 1.17 1.10 1.09 1.06 1.04 1.06 1.04 0.97 0.91 0.87 0.89 0.98 1.17 1.22 1.03 1.08 0.99 0.93 0.90 0.89 0.86 0.82 0.80 0.76
0.05 0.10 0.14 0.18 0.28 0.39 0.47 0.49 0.60 0.69 0.88 0.88 0.78 0.83 1.10 1.46 1.61 1.75 1.90 2.24 2.26 2.04 1.89 1.80 1.74 1.52 1.39 1.36 1.45 1.44 1.30 1.30 1.19 1.32 1.21 1.29 1.66 1.75 1.51 1.47 1.42 1.30 1.19 1.12 1.10 1.13 1.07 1.00 0.96
0.06 0.16 0.17 0.21 0.31 0.47 0.55 0.57 0.73 0.97 1.07 1.05 1.03 1.12 1.46 1.67 1.83 1.97 2.06 2.32 2.66 2.72 2.25 2.05 1.95 1.87 1.75 1.85 1.98 1.99 1.93 1.88 1.67 1.76 1.69 1.78 1.92 1.87 1.85 1.86 1.72 1.67 1.57 1.59 1.60 1.48 1.31 1.21 1.27
0.08 0.13 0.14 0.26 0.33 0.40 0.58 0.62 0.71 0.93 1.19 1.28 1.29 1.47 1.86 1.97 2.17 2.42 2.45 2.67 2.80 2.97 2.82 2.35 2.23 2.36 2.56 2.60 2.46 2.31 2.28 2.28 2.18 2.21 2.03 2.15 2.27 2.28 2.18 2.22 2.09 2.14 2.06 2.10 1.98 1.86 1.77 1.65 1.50
0.11 0.17 0.17 0.24 0.31 0.42 0.49 0.63 0.69 0.86 0.91 1.09 1.36 1.66 1.88 1.74 2.13 2.53 2.52 2.83 2.99 2.92 2.75 2.59 2.77 2.89 2.97 2.94 2.84 2.62 2.58 2.78 2.75 2.71 2.58 2.58 2.51 2.41 2.38 2.34 2.37 2.27 2.36 2.42 2.38 2.13 1.97 1.89 1.74
0.11 0.12 0.14 0.20 0.25 0.36 0.43 0.55 0.66 0.84 0.92 1.04 1.27 1.41 1.57 1.69 2.01 2.43 2.64 3.01 2.95 2.84 2.95 2.93 3.17 3.11 3.02 3.04 3.15 3.11 2.89 3.07 3.29 3.40 3.25 3.00 2.87 2.80 2.76 2.84 2.83 2.57 2.54 2.62 2.70 2.57 2.37 2.09 1.91
0.13 0.12 0.16 0.21 0.22 0.25 0.33 0.55 0.67 0.78 0.93 0.97 1.13 1.21 1.31 1.66 1.95 2.46 2.85 3.19 3.12 3.04 3.09 3.23 3.13 3.32 3.44 3.45 3.38 3.28 3.18 3.25 3.42 3.57 3.63 3.30 3.05 3.15 3.11 3.23 3.22 2.87 2.76 2.87 2.95 2.93 2.82 2.40 2.12
0.14 0.16 0.24 0.26 0.26 0.26 0.36 0.70 0.89 0.87 0.87 0.94 1.00 1.08 1.26 1.69 2.04 2.42 2.74 3.05 3.04 3.14 3.48 3.48 3.09 3.46 3.63 3.62 3.54 3.34 3.41 3.65 3.80 3.78 3.86 3.64 3.28 3.19 3.27 3.18 3.02 2.95 2.99 3.22 3.41 3.35 3.25 2.98 2.70
0.18 0.23 0.31 0.32 0.29 0.30 0.41 0.77 1.09 1.00 0.93 0.95 0.92 1.00 1.19 1.48 1.93 2.25 2.64 3.04 3.26 3.49 3.90 3.66 3.37 3.51 3.62 3.69 3.76 3.53 3.62 3.93 4.09 4.13 3.99 3.63 3.31 3.28 3.45 3.46 3.39 3.30 3.34 3.40 3.29 3.46 3.29 3.35 3.13
0.22 0.29 0.41 0.41 0.37 0.37 0.48 0.80 1.09 1.19 1.12 1.08 1.02 1.12 1.33 1.38 1.55 1.83 2.31 2.87 3.25 3.76 4.37 3.95 3.54 3.50 3.74 3.71 3.61 3.64 3.79 4.09 4.34 4.31 4.08 3.82 3.69 3.58 3.71 3.66 3.71 3.76 3.82 3.65 3.56 3.58 3.35 3.20 3.11
0.18 0.27 0.39 0.49 0.43 0.46 0.58 0.89 1.16 1.34 1.27 1.11 1.16 1.34 1.35 1.31 1.45 1.64 2.11 2.72 3.14 3.63 4.06 4.06 3.83 3.86 3.87 3.88 3.71 3.91 4.13 4.40 4.65 4.55 4.44 4.33 4.25 4.20 4.20 4.22 4.20 4.05 3.95 3.80 3.63 3.53 3.41 3.16 2.96
0.15 0.24 0.35 0.49 0.46 0.52 0.62 0.93 1.30 1.43 1.41 1.35 1.32 1.50 1.37 1.38 1.58 1.83 2.26 2.56 2.96 3.31 3.51 3.82 3.95 3.99 3.76 4.07 4.36 4.62 4.96 5.01 5.29 5.55 5.60 5.41 5.14 4.90 4.67 4.65 4.42 4.11 3.93 3.79 3.59 3.45 3.28 2.99 2.86
0.14 0.18 0.30 0.38 0.39 0.46 0.60 1.10 1.32 1.46 1.45 1.50 1.56 1.73 1.66 1.65 1.81 2.13 2.42 2.55 2.76 3.14 3.42 3.73 4.03 4.14 4.06 4.52 5.03 5.47 5.84 5.79 5.81 5.82 5.81 5.73 5.30 4.92 4.68 4.44 4.28 4.10 3.92 3.74 3.63 3.49 3.35 3.08 2.88
0.12 0.10 0.14 0.22 0.32 0.50 0.54 1.03 1.33 1.56 1.65 1.52 1.66 1.79 1.84 1.68 1.69 1.98 2.28 2.67 2.68 2.93 3.22 3.47 3.83 4.22 4.52 4.95 5.45 6.01 6.35 6.55 6.38 6.02 5.74 5.35 4.92 4.54 4.14 3.95 3.98 3.84 3.64 3.42 3.16 3.03 2.99 2.92 2.78
0.10 0.08 0.11 0.17 0.28 0.46 0.54 0.85 1.33 1.54 1.59 1.56 1.65 1.71 1.81 1.70 1.66 1.84 1.98 2.28 2.48 2.71 3.00 3.30 3.63 4.02 4.66 5.44 6.02 6.44 6.79 6.78 6.26 5.72 5.14 4.67 4.32 4.01 3.71 3.53 3.59 3.48 3.24 3.03 2.77 2.55 2.45 2.42 2.47
0.07 0.12 0.18 0.21 0.31 0.60 0.54 0.79 1.46 1.66 1.68 1.76 1.72 1.70 1.78 1.75 1.75 1.87 1.97 2.21 2.37 2.49 2.76 3.12 3.54 3.87 4.40 5.15 5.79 6.07 6.27 6.21 5.76 5.13 4.59 4.18 3.76 3.40 3.07 2.79 2.70 2.63 2.47 2.36 2.31 2.23 2.18 2.15 2.21
0.08 0.23 0.44 0.59 0.64 0.63 0.51 0.82 1.56 1.78 1.71 1.73 1.81 1.84 1.92 1.94 1.93 1.87 1.85 1.98 2.18 2.31 2.51 2.81 3.18 3.63 3.98 4.37 4.93 5.02 5.07 4.85 4.46 4.23 3.94 3.49 3.08 2.73 2.41 2.19 2.08 2.04 2.02 1.98 1.99 1.98 1.96 1.91 1.93
0.07 0.19 0.52 0.71 0.72 0.74 0.81 1.31 1.92 1.92 1.81 1.77 1.72 1.67 1.73 1.80 1.74 1.74 1.68 1.87 2.08 2.29 2.46 2.63 2.88 3.27 3.61 3.71 3.81 3.73 3.63 3.57 3.42 3.22 2.87 2.57 2.34 2.17 2.03 1.89 1.76 1.72 1.77 1.77 1.84 1.78 1.69 1.63 1.63
0.07 0.11 0.20 0.33 0.49 0.77 1.15 1.63 2.11 2.21 2.02 1.83 1.73 1.63 1.62 1.59 1.52 1.58 1.59 1.69 1.87 2.17 2.34 2.47 2.59 2.75 2.77 2.73 2.72 2.71 2.69 2.58 2.53 2.43 2.17 1.98 1.86 1.72 1.66 1.62 1.59 1.52 1.47 1.44 1.42 1.40 1.39 1.44 1.45
0.07 0.09 0.15 0.36 0.65 0.97 1.33 1.88 2.33 2.50 2.29 1.82 1.60 1.49 1.48 1.53 1.53 1.54 1.60 1.69 1.65 1.75 1.89 2.02 2.16 2.31 2.29 2.14 2.02 2.08 2.08 1.96 1.84 1.70 1.59 1.50 1.43 1.35 1.35 1.29 1.27 1.30 1.32 1.24 1.18 1.15 1.17 1.21 1.27
0.12 0.15 0.20 0.38 0.49 0.81 1.43 2.12 2.19 2.51 2.45 2.10 1.76 1.53 1.52 1.61 1.59 1.50 1.56 1.57 1.48 1.43 1.42 1.50 1.61 1.79 1.87 1.80 1.76 1.78 1.74 1.67 1.56 1.45 1.35 1.27 1.22 1.17 1.13 1.11 1.08 1.07 1.04 1.03 1.07 1.06 1.08 1.15 1.18
0.16 0.20 0.25 0.53 0.59 0.62 1.26 2.26 2.15 2.22 2.34 2.25 2.04 1.84 1.67 1.62 1.56 1.46 1.44 1.47 1.43 1.36 1.26 1.30 1.36 1.33 1.39 1.42 1.54 1.66 1.57 1.50 1.44 1.39 1.31 1.23 1.11 1.07 1.06 1.06 1.00 0.89 0.86 0.93 1.01 1.02 1.01 1.10 1.11